Location: Unspecified
(0.0000°N, 0.0000°E)
Time: 07:32:55
(UTC+00:00)

Envisat - Pass Details

Date: 23 September 2021
Orbit: 764 x 766 km, 98.2° (Epoch: 17 September)

Event Time Altitude Azimuth Distance (km) Brightness Sun altitude
Rises 03:45:28 0° 44° (NE) 3,217 6.8 -31.7°
Reaches altitude 10° 03:48:40 10° 66° (ENE) 2,295 6.2 -30.9°
Maximum altitude 03:51:39 16° 103° (ESE) 1,923 5.8 -30.2°
Drops below altitude 10° 03:54:38 10° 139° (SE) 2,301 5.9 -29.4°
Sets 03:57:49 0° 160° (SSE) 3,230 6.5 -28.6°
